Regional Weather Roundup
Issued by NWS

Home | Current Version | Previous Version | Text Only | Print | Product List | Glossary On
Versions: 1 2 3 4 5 6 7 8 9 10 11 12 13 14 15 16 17 18 19 20 21 22 23 24 25 26 27 28 29 30 31 32 33 34 35 36 37 38 39 40 41 42 43 44 45 46 47 48 49
000
ASUS42 KKEY 260810
RWRKEY

FLORIDA REGIONAL WEATHER ROUNDUP FOR THE FLORIDA KEYS
NATIONAL WEATHER SERVICE KEY WEST FLORIDA
400 AM EDT TUE MAY 26 2015

...SOUTH FLORIDA AND THE KEYS...

CITY           SKY/WX    TMP DP  RH WIND       PRES   REMARKS
FORT MYERS     PTCLDY    75  73  93 E8        30.10S
SW REGIONAL AP PTCLDY    75  72  90 E7        30.11S
NAPLES         CLEAR     76  73  91 E8        30.10F
MIAMI          PTCLDY    81  70  69 E14       30.11S
WEST KENDALL   PTCLDY    79  73  82 E10       30.11F
HOMESTEAD      PTCLDY    81  71  73 E12       30.10
MARATHON       PTCLDY    81  74  79 E10G20    30.08S
BOCA CHICA NAS PTCLDY    81  73  76 E21       30.07F
KEY WEST INTL  PTCLDY    82  73  74 E15G26    30.07F

...INTERNATIONAL WEATHER...

CITY           SKY/WX    TMP DP  RH WIND       PRES   REMARKS
NASSAU BAHAMAS PTCLDY    77  72  83 E5        30.13F
CANCUN MEXICO  CLEAR     81  75  83 E8        29.97F
COZUMEL MEXICO PTCLDY    75  73  94 CALM      29.97F

ADJACENT COASTAL WATERS...

STATION/POSITION TIME  SKY/WX   TEMP    WIND        PRES    WAVE
                                AIR SEA DIR/SP/G            HT/PER
                 (UTC)          (F)     (DEG/KT/KT) (MB)    (FT/S)
PULASKI SHOAL LI 0700            82     120/ 21/ 22 1017.8F
SAND KEY         0750            82     110/ 19/ 22 1017.9F
SOMBRERO KEY     0800            81     100/ 22/ 23 1018.7F
LONG KEY         0800            81 83  110/ 18/ 21 1019.5F
MOLASSES REEF    0800            81 82  100/ 19/ 20 1018.9F
FOWEY ROCKS      NOT AVBL

$$


USA.gov is the U.S. government's official web portal to all federal, state and local government web resources and services.